Regional Weather Roundup
Issued by NWS

Home | Current Version | Previous Version | Graphics & Text | Print | Product List | Glossary On
Versions: 1 2 3 4 5 6 7 8 9 10 11 12 13 14 15 16 17 18 19 20 21 22 23 24 25 26 27 28 29 30 31 32 33 34 35 36 37 38 39 40 41 42 43 44 45 46 47 48 49 50
000
ASUS43 KBIS 251002
RWRND

NORTH DAKOTA REGIONAL WEATHER ROUNDUP
NATIONAL WEATHER SERVICE BISMARCK ND
500 AM CDT WED MAY 25 2016

NOTE: "FAIR" INDICATES FEW OR NO CLOUDS BELOW 12,000 FEET WITH NO
SIGNIFICANT WEATHER AND/OR OBSTRUCTIONS TO VISIBILITY.


NDZ001>003-009>011-017-251100-
NORTHWEST NORTH DAKOTA

CITY           SKY/WX    TMP DP  RH WIND       PRES   REMARKS
WILLISTON      CLOUDY    55  43  63 NE12      29.87F
MINOT          LGT RAIN  57  53  86 N8        29.84F
MINOT AFB      RAIN      57  52  82 S5        29.86S
$$

NDZ018>021-031>035-040>046-251100-
SOUTHWEST NORTH DAKOTA

CITY           SKY/WX    TMP DP  RH WIND       PRES   REMARKS
BISMARCK       CLOUDY    58  56  93 SE5       29.84F
DICKINSON      CLOUDY    50  48  93 NE8       29.80S
GARRISON         N/A     57  53  86 SE12      29.86R
HETTINGER ARPT CLOUDY    52  48  86 SW7       29.84R
$$

NDZ004>008-012>016-024-026-027-054-251100-
NORTHEAST NORTH DAKOTA

CITY           SKY/WX    TMP DP  RH WIND       PRES   REMARKS
GRAND FORKS    CLOUDY    61  52  72 E7        29.85F
DEVILS LAKE    CLOUDY    64  49  57 E10       29.86F
$$

NDZ022-023-025-028>030-036>039-047>053-251100-
SOUTHEAST NORTH DAKOTA

CITY           SKY/WX    TMP DP  RH WIND       PRES   REMARKS
FARGO          CLOUDY    67  49  52 E13       29.82F
$$




USA.gov is the U.S. government's official web portal to all federal, state and local government web resources and services.